Location: Paderno d�Adda
(45.6667°N, 9.4333°E)
Time: 05:23:06
(UTC+00:00)

CENTAUR R/B - Pass Details

Date: 25 January 2021
Orbit: 742 x 1446 km, 63.5° (Epoch: 02 March)

Event Time Altitude Azimuth Distance (km) Brightness Sun altitude
Rises 05:04:08 0° 200° (SSW) 3,344 5.2 -18.6°
Reaches altitude 10° 05:06:27 10° 195° (SSW) 2,485 4.6 -18.2°
Maximum altitude 05:12:03 55° 119° (ESE) 1,146 3.2 -17.3°
Drops below altitude 10° 05:18:42 10° 44° (NE) 2,950 5.5 -16.1°
Sets 05:21:40 0° 41° (NE) 4,026 6.1 -15.6°
